Weather History for KSLK - December, 2014

Change the Weather History Date:

Wednesday, December 24, 2014

  Actual Average Record
Temperature  
Mean Temperature 42 °F 16 °F  
Max Temperature 50 °F 26 °F 50 °F (1957)
Min Temperature 33 °F 6 °F -21 °F (1989)
Degree Days  
Heating Degree Days 23 49  
Month to date heating degree days 984 1075  
Since 1 July heating degree days 3148 3350  
Cooling Degree Days 0 0  
Month to date cooling degree days 0 0  
Year to date cooling degree days 83 114  
Moisture  
Dew Point 40 °F    
Average Humidity 96    
Maximum Humidity 100    
Minimum Humidity 92    
Precipitation  
Precipitation 0.56 in 0.07 in 0.90 in (1990)
Month to date precipitation 1.66 1.87  
Year to date precipitation 34.88 37.10  
Sea Level Pressure  
Sea Level Pressure 29.70 in    
Wind  
Wind Speed 4 mph (South)    
Max Wind Speed 18 mph    
Max Gust Speed 24 mph    
Visibility 6 miles    
Events Rain    
T = Trace of Precipitation, MM = Missing Value Source: NWS Daily Summary

Daily Weather History Graph

Daily Weather History Graph

Search for Another Location

Airport or City:

Trip Planner

Search our weather history database for the weather conditions in past years. The results will help you decide how hot, cold, wet, or windy it might be!

Date:

Astronomy

Dec. 24, 2014 Rise Set
Actual Time 7:31 AM EST 4:21 PM EST
Civil Twilight 6:57 AM EST 4:55 PM EST
Nautical Twilight 6:20 AM EST 5:32 PM EST
Astronomical Twilight 5:45 AM EST 6:07 PM EST
Moon 9:14 AM EST (12/24) 7:50 PM EST (12/24)
Length of Visible Light 9h 57m
Length of Day
8h 50m
Waxing Crescent, 9% of the Moon is Illuminated
Dec 24
Waxing Crescent
Dec 28
First Quarter
Jan 4
Full
Jan 13
Last Quarter
Jan 20
New

Hourly Weather History & Observations

Time (EST) Temp. Windchill Dew Point Humidity Pressure Visibility Wind Dir Wind Speed Gust Speed Precip Events Conditions
12:29 AM 34.0 °F - 34.0 °F 100% 29.97 in 10.0 mi Calm Calm - N/A   Overcast
12:51 AM 34.0 °F - 33.1 °F 96% 30.01 in 10.0 mi Calm Calm - N/A   Overcast
1:36 AM 33.1 °F - 32.0 °F 96% 29.96 in 10.0 mi Calm Calm - N/A   Mostly Cloudy
1:51 AM 33.1 °F - 33.1 °F 100% 30.01 in 10.0 mi Calm Calm - N/A   Overcast
2:23 AM 33.1 °F - 33.1 °F 100% 29.95 in 10.0 mi Calm Calm - N/A   Mostly Cloudy
2:51 AM 33.1 °F 30.0 °F 32.0 °F 96% 29.99 in 10.0 mi North 3.5 mph - N/A   Overcast
3:51 AM 33.1 °F - 33.1 °F 100% 29.99 in 10.0 mi Calm Calm - N/A   Overcast
4:18 AM 34.0 °F 31.0 °F 34.0 °F 100% 29.92 in 10.0 mi Variable 3.5 mph - N/A   Overcast
4:32 AM 35.1 °F - 34.0 °F 96% 29.93 in 10.0 mi Calm Calm - N/A   Mostly Cloudy
4:51 AM 34.0 °F - 34.0 °F 100% 29.96 in 10.0 mi Calm Calm - N/A   Mostly Cloudy
5:36 AM 34.0 °F - 34.0 °F 100% 29.90 in 10.0 mi Calm Calm - N/A   Overcast
5:51 AM 34.0 °F - 33.1 °F 96% 29.95 in 10.0 mi Calm Calm - 0.00 in   Overcast
6:51 AM 44.1 °F 41.5 °F 42.1 °F 93% 29.91 in 10.0 mi SSE 4.6 mph - 0.02 in Rain Light Rain
7:21 AM 42.1 °F 40.2 °F 41.0 °F 96% 29.86 in 5.0 mi SSW 3.5 mph - 0.02 in Rain Light Rain
7:51 AM 41.0 °F - 39.9 °F 96% 29.88 in 7.0 mi Calm Calm - 0.07 in Rain Light Rain
8:51 AM 42.1 °F 40.2 °F 41.0 °F 96% 29.86 in 10.0 mi South 3.5 mph - 0.07 in Rain Light Rain
9:51 AM 43.0 °F 39.5 °F 42.1 °F 97% 29.86 in 6.0 mi South 5.8 mph - 0.04 in Rain Light Rain
10:08 AM 44.1 °F 40.1 °F 42.1 °F 93% 29.81 in 9.0 mi SSE 6.9 mph - 0.01 in Rain Light Rain
10:30 AM 44.1 °F 38.1 °F 42.1 °F 93% 29.79 in 9.0 mi SSE 11.5 mph - 0.03 in Rain Light Rain
10:51 AM 44.1 °F 39.5 °F 42.1 °F 93% 29.81 in 8.0 mi SSE 8.1 mph - 0.04 in Rain Light Rain
11:51 AM 45.0 °F 41.2 °F 43.0 °F 93% 29.78 in 6.0 mi South 6.9 mph - 0.05 in Rain Light Rain
12:15 PM 43.0 °F - 42.1 °F 97% 29.72 in 2.0 mi Calm Calm - 0.04 in Rain Rain
12:51 PM 45.0 °F 41.2 °F 43.0 °F 93% 29.72 in 5.0 mi SSE 6.9 mph - 0.10 in Rain Light Rain
1:39 PM 44.1 °F 42.5 °F 43.0 °F 96% 29.66 in 6.0 mi West 3.5 mph - 0.04 in Rain Light Rain
1:51 PM 43.0 °F - 43.0 °F 100% 29.70 in 5.0 mi Calm Calm - 0.04 in Rain Light Rain
2:26 PM 42.1 °F - 41.0 °F 96% 29.63 in 1.8 mi Calm Calm - 0.02 in Rain Light Rain
2:38 PM 42.1 °F - 41.0 °F 96% 29.63 in 0.8 mi Calm Calm - 0.02 in Rain Light Rain
2:46 PM 42.8 °F - 41.0 °F 93% 29.62 in 2.0 mi Calm Calm - 0.02 in Rain Light Rain
2:51 PM 42.1 °F - 42.1 °F 100% 29.66 in 2.5 mi Calm Calm - 0.02 in   Overcast
2:59 PM 39.0 °F - 37.9 °F 96% 29.62 in 1.0 mi Calm Calm - 0.00 in Rain Light Rain
3:06 PM 37.9 °F 35.5 °F 37.9 °F 100% 29.61 in 0.8 mi ENE 3.5 mph - 0.01 in Rain Light Rain
3:20 PM 41.0 °F - 41.0 °F 100% 29.61 in 0.8 mi Calm Calm - 0.01 in   Overcast
3:24 PM 41.0 °F - 41.0 °F 100% 29.61 in 1.0 mi Calm Calm - 0.01 in Rain Light Rain
3:31 PM 41.0 °F - 41.0 °F 100% 29.60 in 3.0 mi Calm Calm - 0.01 in Rain Light Rain
3:35 PM 39.0 °F - 39.0 °F 100% 29.60 in 1.5 mi Calm Calm - 0.01 in Rain Light Rain
3:51 PM 41.0 °F - 39.9 °F 96% 29.63 in 1.0 mi Calm Calm - 0.02 in Rain Light Rain
4:25 PM 39.9 °F - 39.0 °F 97% 29.58 in 2.0 mi Calm Calm - 0.03 in Rain Light Rain
4:33 PM 37.0 °F - 37.0 °F 100% 29.58 in 1.5 mi Calm Calm - 0.03 in Rain Light Rain
4:51 PM 41.0 °F - 41.0 °F 100% 29.60 in 2.0 mi Calm Calm - 0.04 in Rain Light Rain
5:02 PM 39.0 °F - 39.0 °F 100% 29.56 in 1.2 mi Calm Calm - 0.01 in Rain Light Rain
5:17 PM 37.9 °F - 37.9 °F 100% 29.56 in 0.8 mi Calm Calm - 0.01 in Rain Light Rain
5:31 PM 37.9 °F - 37.9 °F 100% 29.55 in 1.8 mi Calm Calm - 0.01 in   Overcast
5:38 PM 37.0 °F - 37.0 °F 100% 29.55 in 2.0 mi Calm Calm - 0.01 in   Overcast
5:47 PM 39.2 °F - 37.4 °F 93% 29.54 in 1.2 mi Calm Calm - 0.01 in Rain Light Rain
5:51 PM 37.9 °F - 37.9 °F 100% 29.58 in 1.2 mi Calm Calm - 0.01 in Rain Light Rain
6:24 PM 41.0 °F - 39.9 °F 96% 29.51 in 3.0 mi Calm Calm - 0.02 in Rain Light Rain
6:51 PM 46.9 °F - 46.0 °F 97% 29.50 in 10.0 mi SSE 9.2 mph - 0.03 in Rain Light Rain
7:51 PM 45.0 °F - 45.0 °F 100% 29.45 in 10.0 mi Calm Calm - 0.01 in   Partly Cloudy
8:51 PM 46.0 °F 43.9 °F 45.0 °F 96% 29.40 in 10.0 mi SW 4.6 mph - N/A   Mostly Cloudy
9:33 PM 46.9 °F - 46.0 °F 97% 29.41 in 10.0 mi North - - N/A   Mostly Cloudy
9:51 PM 50.0 °F - 48.0 °F 93% 29.42 in 10.0 mi SW 17.3 mph - N/A   Overcast
10:36 PM 46.9 °F - 46.9 °F 100% 29.38 in 10.0 mi SSW 10.4 mph - N/A   Mostly Cloudy
10:51 PM 45.0 °F 40.6 °F 44.1 °F 97% 29.39 in 10.0 mi SW 8.1 mph - N/A   Mostly Cloudy
11:51 PM 46.0 °F 41.4 °F 45.0 °F 96% 29.35 in 10.0 mi South 9.2 mph - N/A   Clear